Last 24 Hours

Pinyon

10 Minute Data | America/Los_Angeles
as of 9/2/26 1:45 PM PDT
Date & Time Temp (°F) Dew Pt (°F) RH (%) Wind Spd (mph) Wind Dir (°) Wind Gust (mph) Wind Gst Dir (°) Daily Max Temp (°F) Daily Min Temp (°F)
9/2/26 - 1340 79.2 17.6 10 20.6 NNW | 334 30.9 NNW | 332 80.1 62.3
9/2/26 - 1330 78.9 17.9 10 21.4 NNW | 334 28.2 NW | 319 80.1 62.3
9/2/26 - 1320 79.4 18.1 10 22.2 NNW | 331 32.5 NW | 318 80.1 62.3
9/2/26 - 1310 78.8 17.2 10 21.2 NNW | 334 32.1 NNW | 339 79.6 62.3
9/2/26 - 1300 78.4 17.0 10 23.2 NNW | 338 32.8 NNW | 338 79.6 62.3
9/2/26 - 1250 78.7 16.7 10 21.6 NNW | 336 32.3 NNW | 337 79.6 62.3
9/2/26 - 1240 77.8 16.6 10 22.5 NNW | 335 31.6 NNW | 342 78.9 62.3
9/2/26 - 1230 78.1 16.7 10 21.4 NNW | 339 33.5 NNW | 341 78.9 62.3
9/2/26 - 1220 77.9 16.9 10 22.6 NNW | 336 31.9 NNW | 339 78.8 62.3
9/2/26 - 1210 77.9 17.4 10 23.0 NNW | 334 32.7 N | 351 78.8 62.3
9/2/26 - 1200 77.8 18.4 11 20.9 NNW | 341 29.9 NNW | 338 78.8 62.3
9/2/26 - 1150 77.5 18.6 11 22.0 NNW | 340 31.6 NNW | 336 78.2 62.3
9/2/26 - 1140 77.0 18.8 11 22.3 NNW | 337 31.5 NNW | 340 78.2 62.3
9/2/26 - 1130 77.2 18.6 11 21.5 NNW | 334 30.2 NNW | 338 78.2 62.3
9/2/26 - 1120 77.1 19.6 11 20.8 NNW | 337 28.9 NNW | 336 77.9 62.3
9/2/26 - 1110 76.9 19.9 12 19.6 NNW | 338 30.9 N | 351 77.9 62.3
9/2/26 - 1100 76.6 19.8 12 19.3 NNW | 331 30.7 N | 1 77.0 62.3
9/2/26 - 1050 76.1 19.0 12 21.0 NNW | 335 29.9 NNW | 336 77.0 62.3
9/2/26 - 1040 75.9 18.3 11 20.1 NNW | 333 32.2 NNW | 329 77.0 62.3
9/2/26 - 1030 76.2 18.6 11 18.9 NNW | 329 29.7 NNW | 331 77.0 62.3
9/2/26 - 1020 76.0 18.2 11 19.8 NNW | 337 26.7 NNW | 335 77.0 62.3
9/2/26 - 1010 76.4 18.4 11 17.2 NNW | 336 27.6 NW | 322 77.0 62.3
9/2/26 - 1000 75.8 18.6 11 16.5 NNW | 339 25.3 NNW | 330 76.3 62.3
9/2/26 - 0950 75.4 18.2 11 17.9 NNW | 343 25.9 NNW | 329 75.7 62.3
9/2/26 - 0940 74.7 19.6 12 17.3 NNW | 337 25.1 NNW | 347 75.3 62.3
9/2/26 - 0930 73.8 20.2 13 17.0 NNW | 332 24.8 NNW | 340 74.5 62.3
9/2/26 - 0920 73.1 20.0 13 18.8 NNW | 332 26.7 NNW | 340 73.7 62.3
9/2/26 - 0910 72.7 19.9 14 18.8 NNW | 332 27.2 NW | 326 73.0 62.3
9/2/26 - 0900 72.0 19.8 14 19.6 NNW | 329 28.6 NNW | 328 72.7 62.3
9/2/26 - 0850 71.4 19.6 14 21.2 NNW | 329 30.0 NNW | 346 71.7 62.3
9/2/26 - 0840 70.9 19.4 14 21.7 NNW | 327 30.2 NNW | 333 71.1 62.3
9/2/26 - 0830 70.6 19.3 14 20.9 NNW | 328 30.8 NW | 320 70.8 62.3
9/2/26 - 0820 70.3 19.0 14 21.8 NNW | 327 32.2 NNW | 329 70.4 62.3
9/2/26 - 0810 70.2 18.8 14 21.5 NNW | 328 28.9 NNW | 339 70.3 62.3
9/2/26 - 0800 70.0 18.8 14 19.4 NNW | 328 27.0 NW | 323 70.0 62.3
9/2/26 - 0750 69.4 18.6 14 20.1 NNW | 329 26.5 NW | 322 69.7 62.3
9/2/26 - 0740 68.9 18.6 14 19.8 NNW | 329 27.2 NNW | 347 69.3 62.3
9/2/26 - 0730 68.1 19.1 15 19.5 NNW | 330 27.2 NW | 321 68.6 62.3
9/2/26 - 0720 67.4 19.4 16 19.5 NNW | 331 26.8 NNW | 332 67.6 62.3
9/2/26 - 0710 67.1 19.3 16 21.7 NNW | 332 29.8 NNW | 335 67.3 62.3
9/2/26 - 0700 66.4 19.1 16 20.5 NNW | 330 28.2 NNW | 335 66.7 62.3
9/2/26 - 0650 65.7 19.2 17 20.6 NNW | 330 28.5 NW | 325 65.9 62.3
9/2/26 - 0640 65.2 19.7 17 20.2 NNW | 330 28.6 NW | 325 65.4 62.3
9/2/26 - 0630 65.0 20.2 18 20.8 NNW | 330 28.4 NNW | 332 65.2 62.3
9/2/26 - 0620 64.8 21.2 19 21.2 NNW | 330 28.7 NW | 317 65.0 62.3
9/2/26 - 0610 64.6 22.5 20 21.5 NNW | 332 28.9 NNW | 331 64.7 62.3
9/2/26 - 0600 64.4 24.7 22 22.1 NNW | 333 28.1 NNW | 330 64.7 62.3
9/2/26 - 0550 64.0 26.7 24 21.4 NNW | 334 28.4 NNW | 332 64.7 62.3
9/2/26 - 0540 64.2 28.1 25 21.6 NNW | 334 28.2 NNW | 336 64.7 62.3
9/2/26 - 0530 64.2 29.7 27 21.6 NNW | 333 28.4 NNW | 339 64.7 62.3
9/2/26 - 0520 64.4 31.2 29 21.2 NNW | 335 28.1 NNW | 328 64.7 62.3
9/2/26 - 0510 64.6 31.6 29 22.3 NNW | 332 29.4 NNW | 329 64.7 62.3
9/2/26 - 0500 64.3 31.6 29 21.8 NNW | 332 28.4 NNW | 338 64.5 62.3
9/2/26 - 0450 64.1 30.0 28 21.6 NNW | 330 29.2 NNW | 334 64.2 62.3
9/2/26 - 0440 63.9 28.5 26 21.6 NNW | 327 28.3 NNW | 331 64.1 62.3
9/2/26 - 0430 63.9 26.8 24 19.8 NNW | 329 28.5 NW | 323 64.1 62.3
9/2/26 - 0420 64.0 27.1 25 19.7 NNW | 329 26.0 NNW | 327 64.1 62.3
9/2/26 - 0410 63.8 27.6 25 21.0 NNW | 327 27.2 NNW | 331 64.1 62.3
9/2/26 - 0400 63.7 26.3 24 20.0 NNW | 329 27.6 NW | 326 64.1 62.3
9/2/26 - 0350 63.8 24.7 22 21.3 NW | 326 28.9 NW | 326 64.1 62.3
9/2/26 - 0340 63.7 23.6 21 23.6 NW | 321 32.6 NW | 321 64.1 62.3
9/2/26 - 0330 63.7 23.5 21 22.5 NW | 321 32.6 NW | 322 64.1 62.3
9/2/26 - 0320 63.8 23.8 22 23.6 NW | 325 33.0 NW | 320 64.1 62.3
9/2/26 - 0310 63.9 23.9 22 23.5 NW | 326 32.2 NW | 325 64.1 62.3
9/2/26 - 0300 63.8 24.1 22 23.8 NNW | 327 32.7 NNW | 330 64.0 62.3
9/2/26 - 0250 63.4 24.5 23 23.3 NW | 326 32.0 NNW | 331 64.0 62.3
9/2/26 - 0240 63.4 24.6 23 22.9 NW | 324 30.9 NNW | 330 64.0 62.3
9/2/26 - 0230 63.6 24.7 23 22.4 NW | 326 30.1 NNW | 327 64.0 62.3
9/2/26 - 0220 63.8 24.9 23 22.6 NNW | 329 30.5 NNW | 335 64.0 62.3
9/2/26 - 0210 63.7 25.3 23 22.5 NNW | 328 29.9 NNW | 331 64.0 62.3
9/2/26 - 0200 63.4 26.1 24 21.9 NNW | 329 31.0 NW | 320 63.8 62.3
9/2/26 - 0150 63.0 27.8 26 21.1 NNW | 328 27.7 NNW | 345 63.2 62.3
9/2/26 - 0140 62.9 29.0 28 21.5 NNW | 328 29.9 NW | 314 63.1 62.3
9/2/26 - 0130 63.0 29.6 28 21.0 NW | 326 30.0 NW | 326 63.0 62.3
9/2/26 - 0120 62.6 30.2 29 21.8 NW | 326 28.6 NNW | 330 63.0 62.3
9/2/26 - 0110 62.9 29.9 29 21.7 NNW | 328 30.5 NNW | 327 62.9 62.5
9/2/26 - 0100 63.0 30.1 29 22.0 NW | 326 28.4 NNW | 332 81.8 62.7
9/2/26 - 0050 63.3 29.2 27 21.1 NNW | 327 28.6 NNW | 339 81.8 62.7
9/2/26 - 0040 63.6 28.4 26 21.9 NW | 326 29.3 NNW | 344 81.8 63.3
9/2/26 - 0030 64.0 28.4 26 21.3 NW | 324 30.8 NNW | 327 81.8 63.3
9/2/26 - 0020 64.8 28.8 26 20.7 NW | 326 28.8 NNW | 334 81.8 63.3
9/2/26 - 0010 65.0 28.8 26 18.4 NW | 325 26.1 NW | 324 81.8 63.3
9/2/26 - 0000 65.1 29.0 26 18.2 NW | 322 27.8 NW | 318 81.8 63.3
9/1/26 - 2350 65.3 30.0 26 18.6 NW | 324 25.6 NNW | 328 81.8 63.3
9/1/26 - 2340 65.3 30.4 27 18.9 NNW | 327 26.7 NNW | 327 81.8 63.3
9/1/26 - 2330 65.3 31.6 28 19.9 NW | 324 27.7 NNW | 330 81.8 63.3
9/1/26 - 2320 65.4 32.8 30 21.1 NW | 323 29.7 NW | 314 81.8 63.3
9/1/26 - 2310 65.6 33.5 30 22.3 NW | 325 28.1 NW | 324 81.8 63.3
9/1/26 - 2300 65.3 34.1 31 20.5 NW | 324 26.9 NW | 322 81.8 63.3
9/1/26 - 2250 65.2 34.2 31 20.5 NW | 324 26.8 NW | 310 81.8 63.3
9/1/26 - 2240 65.3 34.4 32 19.6 NW | 325 25.4 NNW | 332 81.8 63.3
9/1/26 - 2230 65.4 34.4 32 18.7 NW | 325 26.3 NW | 323 81.8 63.3
9/1/26 - 2220 65.3 34.2 31 17.6 NW | 326 22.9 NNW | 335 81.8 63.3
9/1/26 - 2210 65.5 33.8 31 16.7 NNW | 330 22.4 NW | 321 81.8 63.3
9/1/26 - 2200 65.6 33.3 30 16.2 NNW | 330 21.5 NNW | 334 81.8 63.3
9/1/26 - 2150 65.6 33.4 30 15.7 NNW | 330 21.4 NNW | 332 81.8 63.3
9/1/26 - 2140 65.9 33.3 30 16.9 NNW | 332 23.8 NNW | 328 81.8 63.3
9/1/26 - 2130 66.0 31.9 28 18.3 NNW | 332 24.0 NNW | 341 81.8 63.3
9/1/26 - 2120 66.1 31.8 28 18.7 NNW | 333 25.8 NNW | 342 81.8 63.3
9/1/26 - 2110 66.2 31.8 28 17.9 NNW | 337 25.1 NNW | 336 81.8 63.3
9/1/26 - 2100 66.4 31.3 27 19.7 NNW | 334 26.4 NNW | 344 81.8 63.3
9/1/26 - 2050 66.7 28.9 24 18.2 NNW | 330 26.3 NNW | 335 81.8 63.3
9/1/26 - 2040 67.0 27.8 23 18.5 NNW | 331 26.3 NNW | 329 81.8 63.3
9/1/26 - 2030 67.3 28.0 23 18.9 NNW | 330 26.7 NW | 324 81.8 63.3
9/1/26 - 2020 67.5 28.2 23 18.5 NNW | 330 26.8 NNW | 334 81.8 63.3
9/1/26 - 2010 67.8 28.1 22 19.0 NNW | 329 26.4 NNW | 339 81.8 63.3
9/1/26 - 2000 68.2 27.4 22 19.4 NNW | 329 28.1 NNW | 339 81.8 63.3
9/1/26 - 1950 68.7 26.0 20 20.6 NNW | 330 27.9 NNW | 329 81.8 63.3
9/1/26 - 1940 69.1 31.6 25 20.2 NNW | 329 28.4 NW | 321 81.8 63.3
9/1/26 - 1930 69.6 34.5 27 20.6 NNW | 329 29.3 NNW | 330 81.8 63.3
9/1/26 - 1920 70.1 33.8 26 20.0 NNW | 336 28.9 N | 350 81.8 63.3
9/1/26 - 1910 70.9 33.1 25 20.4 NNW | 336 28.0 NW | 326 81.8 63.3
9/1/26 - 1900 71.9 31.5 22 21.1 NNW | 336 29.2 NNW | 343 81.8 63.3
9/1/26 - 1850 72.8 30.6 21 20.7 NNW | 335 31.0 NNW | 339 81.8 63.3
9/1/26 - 1840 73.3 32.9 23 21.5 NNW | 335 33.5 NNW | 328 81.8 63.3
9/1/26 - 1830 73.8 33.2 23 20.5 NNW | 340 29.0 N | 353 81.8 63.3
9/1/26 - 1820 74.6 34.0 23 20.0 NNW | 337 30.1 NNW | 340 81.8 63.3
9/1/26 - 1810 75.2 34.4 23 18.0 NNW | 340 27.0 N | 354 81.8 63.3
9/1/26 - 1800 75.8 35.4 23 18.9 NNW | 338 28.5 N | 349 81.8 63.3
9/1/26 - 1750 76.4 36.2 23 18.7 NNW | 339 25.8 N | 6 81.8 63.3
9/1/26 - 1740 76.7 37.1 24 19.4 NNW | 342 28.6 N | 349 81.8 63.3
9/1/26 - 1730 77.1 37.3 24 19.6 NNW | 348 30.5 NNW | 347 81.8 63.3
9/1/26 - 1720 78.1 37.6 23 16.9 NNW | 337 25.8 NW | 324 81.8 63.3
9/1/26 - 1710 78.2 37.6 23 17.0 NNW | 340 27.9 N | 350 81.8 63.3
9/1/26 - 1700 78.1 37.2 23 18.8 NNW | 341 28.2 N | 0 81.8 63.3
9/1/26 - 1650 78.3 37.1 23 19.5 NNW | 347 30.0 N | 354 81.8 63.3
9/1/26 - 1640 79.1 37.3 22 18.5 NNW | 339 28.1 NNW | 334 81.8 63.3
9/1/26 - 1630 79.7 36.8 21 16.4 NNW | 339 26.4 NNW | 346 81.8 63.3
9/1/26 - 1620 78.8 37.0 22 18.4 NNW | 342 26.8 NNW | 337 81.8 63.3
9/1/26 - 1610 79.1 36.9 22 19.6 NNW | 344 31.9 NNW | 346 81.8 63.3
9/1/26 - 1600 79.7 36.7 21 16.0 NNW | 345 25.6 N | 351 81.8 63.3
9/1/26 - 1550 79.9 37.0 21 17.5 NNW | 344 25.7 NW | 322 81.8 63.3
9/1/26 - 1540 79.8 37.2 22 16.4 NNW | 347 26.6 NNW | 336 81.8 63.3
9/1/26 - 1530 80.6 37.5 21 17.0 NNW | 342 27.4 NNW | 346 81.8 63.3
9/1/26 - 1520 80.4 37.5 21 15.3 NNW | 338 24.6 N | 354 81.8 63.3
9/1/26 - 1510 80.2 37.4 22 16.2 NNW | 340 31.0 NW | 324 81.8 63.3
9/1/26 - 1500 80.4 37.5 21 17.6 NNW | 337 28.6 N | 354 81.8 63.3
9/1/26 - 1450 80.7 37.0 21 16.9 NNW | 345 25.4 NNW | 342 81.8 63.3
9/1/26 - 1440 80.6 36.5 21 18.5 NNW | 345 27.2 N | 350 81.8 63.3
9/1/26 - 1430 80.9 36.4 20 16.8 NNW | 346 26.3 NNW | 346 81.8 63.3
9/1/26 - 1420 80.0 36.0 21 17.9 N | 350 28.6 N | 0 81.4 63.3
9/1/26 - 1410 80.5 36.2 20 17.3 N | 350 28.9 N | 2 81.4 63.3
9/1/26 - 1400 80.7 36.4 20 13.1 NNW | 335 21.6 NW | 316 81.4 63.3
9/1/26 - 1350 80.6 36.2 20 15.7 NNW | 341 24.5 N | 354 81.4 63.3
9/1/26 - 1340 80.3 35.7 20 15.3 NNW | 330 25.1 NNW | 334 81.4 63.3
Max 80.9 37.6 32 23.8 - 33.5 - 81.8 63.3
Avg 70.7 27.5 21 19.9 - 28.4 - - -
Min 62.6 16.6 10 13.1 - 21.4 - 62.9 62.3